Flag for Sweden Weather past 2 weeks in Stockholm, Sweden

Now
59 °F

Scattered clouds.


Feels Like: 57 °F
Forecast: 44 / 61 °F
Wind: 13 mph from West

Location: Stockholm Bromma Airport

Current Time: May 27, 2015 at 3:02:18 PM

Latest Report: May 27, 2015 at 2:20 PM


Visibility: N/A

Pressure: 29.80 "Hg

Humidity: 51%

Dew point: 41 °F

Location of StockholmLocation

Historic Weather in Stockholm — Graph

°F

Stockholm temperature yesterday

Maximum temperature yesterday: 59 °F (at 2:50 PM)
Minimum temperature yesterday: 46 °F (at 9:50 PM)
Average temperature yesterday: 53 °F

Past Weeks' High & Low Weather Summary

 TemperatureHumidityPressure
High63 °F (May 24, 12:50 PM)100% (May 12, 10:20 PM)30.09 "Hg (May 12, 10:20 PM)
Low30 °F (May 16, 3:20 AM)31% (May 23, 4:50 PM)29.39 "Hg (May 13, 4:50 AM)
Average49 °F72%29.78 "Hg
* Reported May 12 1:20 PM — May 27 1:50 PM, Stockholm, Weather by CustomWeather, © 2015

Note: Actual official high and low records may vary slightly from our data, if they occured in-between our weather recording intervals... More about our weather records

Advertising

Stockholm weather history for previous 24 hours

 ConditionsComfort  
Time TempWeatherWind HumidityBarometerVisibility
1:50 PM
Wed, May 27
59 °FScattered clouds.13 mph51%29.77 "HgN/A
1:20 PM61 °FScattered clouds.13 mph48%29.77 "HgN/A
12:50 PM59 °FScattered clouds.13 mph51%29.77 "HgN/A
12:20 PM59 °FPassing clouds.12 mph51%29.77 "HgN/A
11:50 AM59 °FScattered clouds.10 mph51%29.77 "HgN/A
11:20 AM59 °FScattered clouds.14 mph51%29.77 "HgN/A
10:50 AM57 °FScattered clouds.15 mph55%29.77 "HgN/A
10:20 AM57 °FScattered clouds.13 mph55%29.77 "HgN/A
9:50 AM55 °FScattered clouds.13 mph63%29.77 "HgN/A
9:20 AM54 °FScattered clouds.12 mph67%29.77 "HgN/A
8:50 AM54 °FPassing clouds.13 mph67%29.74 "HgN/A
8:20 AM52 °FPassing clouds.12 mph77%29.74 "HgN/A
7:50 AM52 °FPassing clouds.12 mph72%29.74 "HgN/A
7:20 AM50 °FPassing clouds.9 mph76%29.77 "HgN/A
6:50 AM50 °FPassing clouds.9 mph76%29.77 "HgN/A
6:20 AM48 °FSunny.9 mph82%29.74 "Hg10 mi
5:50 AM46 °FSunny.8 mph87%29.74 "Hg10 mi
5:20 AM46 °FCool.7 mph87%29.74 "HgN/A
4:50 AM45 °FQuite cool.7 mph93%29.74 "HgN/A
4:20 AM43 °FQuite cool.6 mph93%29.74 "HgN/A
3:50 AM45 °FQuite cool.7 mph87%29.74 "HgN/A
3:20 AM43 °FQuite cool.7 mph93%29.74 "HgN/A
2:50 AM43 °FQuite cool.6 mph93%29.74 "HgN/A
2:20 AM43 °FQuite cool.6 mph93%29.74 "HgN/A
1:50 AM43 °FQuite cool.5 mph93%29.74 "HgN/A
1:20 AM45 °FQuite cool.6 mph87%29.74 "HgN/A
12:50 AM45 °FQuite cool.5 mph87%29.74 "HgN/A
12:20 AM46 °FPassing clouds.7 mph87%29.74 "HgN/A
11:20 PM
Tue, May 26
48 °FPassing clouds.5 mph76%29.74 "HgN/A
10:50 PM50 °FOvercast.5 mph71%29.74 "HgN/A
10:20 PM50 °FScattered clouds.8 mph76%29.74 "HgN/A
9:50 PM46 °FScattered showers. Passing clouds.3 mph93%29.74 "HgN/A
9:20 PM50 °FPassing clouds.3 mph76%29.74 "HgN/A
8:50 PM52 °FSprinkles. Scattered clouds.7 mph67%29.74 "HgN/A
8:20 PM54 °FScattered showers. Scattered clouds.3 mph67%29.74 "HgN/A
7:50 PM54 °FScattered showers. Scattered clouds.3 mph72%29.74 "HgN/A
7:20 PM54 °FScattered showers. Broken clouds.6 mph67%29.74 "HgN/A
6:50 PM54 °FSprinkles. Scattered clouds.7 mph72%29.74 "HgN/A
6:20 PM57 °FScattered clouds.7 mph55%29.74 "HgN/A
5:50 PM59 °FScattered clouds.3 mph48%29.71 "HgN/A
5:20 PM57 °FPassing clouds.5 mph51%29.74 "HgN/A
4:50 PM57 °FSunny.12 mph55%29.74 "Hg10 mi
4:20 PM59 °FPassing clouds.7 mph42%29.74 "HgN/A
3:50 PM59 °FPassing clouds.6 mph42%29.74 "HgN/A
3:20 PM59 °FPassing clouds.6 mph42%29.74 "HgN/A
Weather by CustomWeather, © 2015

See weather overviewHow to use our weather pages